Back to catalog

STARLINK-11673

AliveCommunicationsVLEO
NORAD 64318·PAYLOAD·🇺🇸 United States

Launched Jun 10, 2025 from Cape Canaveral Space Force Station

Loading…

Next Passes (next 24 hours)

TLE

FreshSource: CelesTrak SupGP

Epoch: Sep 14, 2026, 14:50 UTC

1 64318C 25124B   26257.61854167  .00062940  00000+0  48913-3 0  2571
2 64318  43.0002 330.4098 0001657 260.8318 259.5574 15.70793677    17

Track STARLINK-11673 in real time with AllMySat

Download on the App Store